AQI (50)

Current Conditions for Foresthill, CA. Overcast, Dry   
Visibility: 10 miles
Cloud ht: 12,000 ft
Space WX Alerts: WARNING:  Geomagnetic K-index of 4 expected ( Latest Alert ) - Issue Time: 2021 Jul 28 1922 UTC

  Summary / Temperature 

Current Temperature
77.2°F
25.1°C
(24/hr Ago)
74.7°F
(Apparent temp)
73.2°F
Comfortable
Heat Index
77.0°F 

79.3°F/ 26.3°C
Little or no discomfort

 Temp Rate:

 24/hr Difference:

 Avg Running Temp:

 Todays High:

 Todays Low:

 Y-days High:

 Y-days Low:

 Todays HeatIdx:

 Y-days HeatIdx:

 Evapotranspiration:

-0.5°F/hr 

+2.5°F

77.9°F

79.7°F 12:35am

77.2°F 5:21am

95.7°F 5:42pm

74.4°F 5:53am

79.3°F 12:35am

92.5°F 5:42pm

0.018 in

115' Above Ground

 Temperature:

 6'AGL VRS 115'AGL:

 Avg Running Temp:

 Humidity:

 Todays High:

 Todays Low:

 Y-days High:

 Y-days Low:

90.0°F 

+12.8°F

90.0°F

0% 

90.0°F 12:00am

90.0°F 12:00am

94.0°F 5:17pm

89.0°F 12:00am

Temp & Humidity Graphs

  Wind 

Wind Speed

 14.0 mph

Gusting to

 16.0 mph

Wind from ESE

102°  ESE

Moderate breeze

 Avg speed:

 Wind Run:

 Peak Gust:

  7.0 mph 

26.0 miles

  16.0 mph 2:26am

  Almanac  

Moon age: 22 days,2 hours,41 minutes,51%

Last Quarter
50%
Illuminated
22 days in cycle

 Moonrise:

 Moonset:

 Sunrise:

 Sunset:

 Solar Noon:

12:08am

1:50pm

6:04am

8:16pm

1:10pm

1min 51s less daylight tomorrow 

  Solar Radiation 

(Current Solar)
  No Sun Light
(Todays High)
 None@12:00am

Rain

 Rain Today:

 Rain Rate (/hr):

 Rain last hour:

 Rain Yesterday:

 This Month:

 Season Total:

95 Days Since Last Rain Day

0.00 in

0.000 in

0.00 in

0.00 in

0.00 in

0.00 in

Updated Time

Updated: 7/31/21  5:23am

(Updated  sec ago)

Humidity & Barometer

 Humidity:

 Wetbulb:

 Dew Point:

 Barometer:

38% 

62.1°F 

49.6°F 

29.852 inHg 

 Baro Trend:  Steady 
Northern Calif
Preparedness
Fire 
Level 

    UV Index  

(Current UV)
0.0  None
(Todays High) @ 12:00am
0.0   None

National Weather Service Forecast

Overnight

Overnight: Mostly Cloudy
Mostly Cloudy
Saturday

Saturday: Partly Sunny
Partly Sunny
Saturday
Night
Saturday Night: Partly Cloudy
Partly Cloudy
Sunday

Sunday: Sunny
Sunny
Sunday
Night
Sunday Night: Mostly Clear
Mostly Clear
Monday

Monday: Sunny
Sunny
Lo 75 °F ↑ Hi 91 °F Lo 72 °F Hi 91 °F Lo 69 °F Hi 90 °F

Foresthill Probe 2 Stats  
Foresthill Probe 2: is located on Thomas Street
at 3000 feet. The main Foresthill Weather site
is located on Melody ln at the 2860 foot elevation

Calm
74.9°F
23.8°C
Temp Rate:
-0.5°F
Calm
Gusting to
1.0 mph
(Humidity)
43%
Wind from ESE
107°  ESE
Updated: 31/07/21 - 05:23:32
 Todays High: 77.9°F 00:00
 Todays Low: 74.5°F 05:09
 Rain Today: 0.00 in
 Season Total: 0.00 in

Foresthill Wx: Monthly,Yearly, Highs and Lows 

Foresthill  
This Weather Data is coming from the main Foresthill
Weather site located on Melody ln at the 2860 foot
elevation
Not Foresthill Probe 2
Weather Data
Month
  High
Month
  Low
Year
High
Year
Low
Temp 103.2°F
7/10/21
64.2°F
7/15/21
103.9°F
6/18/21
25.3°F
1/26/21
Humidity 59%
7/3/21
5%
7/12/21
100%
1/3/21
5%
7/12/21
Heat Index 101.3°F
7/10/21
65.1°F
7/15/21
101.4°F
6/27/21
31.2°F
1/26/21
Wind Chill 103.2°F
7/10/21
64.2°F
7/15/21
103.9°F
6/18/21
12.5°F
1/26/21
Wind Gust 24 mph
7/12/21
0 mph
7/1/21
50 mph
1/19/21
0 mph
1/1/21
Barometer 30.01 in
7/27/21
29.73 in
7/11/21
30.52 in
2/21/21
29.64 in
6/18/21
ET 0.33 in
7/12/21
0.00 in
7/1/21
0.33 in
7/12/21
0.00 in
1/1/21
Dew Point 59.0°F
7/3/21
14.4°F
7/12/21
60.0°F
6/26/21
3.6°F
2/24/21
Visible Satellite Pacific Satellite US Radar Satellite Imagery Sacramento,CA.  (click to enlarge)
NWS Weather Forecast - Summary
Updated: Saturday, July 31, 2021 - 2:21am PDT
Afternoon and Evening Thunderstorm Chances over the Mountains Through the Weekend
NWS Weather Forecast: Overnight and Saturday (Updated: Fri, 30-Jul-2021 1:39pm PDT)
Overnight

Overnight: Mostly Cloudy
Mostly Cloudy

Lo 75 °F ↑
NWS forecast: Mostly cloudy. Low around 75, with temperatures rising to around 77 overnight. East wind around 7 mph.
Saturday

Saturday: Partly Sunny
Partly Sunny

Hi 91 °F
NWS forecast: Partly sunny, with a high near 91. South southwest wind around 7 mph.
YR.NO 10 Day Weather forecast
Last update: 07/31/2021 @ 01:03
Next update: 07/31/2021 @ 07:03
Provided by: 22
      Temperature Precipitation Pressure Wind  
Today
07/31/2021
03:00 06:00 68°F   29.93 inHg Light breeze from east-northeast 4 mph
  06:00 12:00 68°F   29.96 inHg Light breeze from east 4 mph
  12:00 18:00 88°F   30.02 inHg Gentle breeze from southwest 8 mph
  18:00 00:00 86°F   29.98 inHg Light breeze from southwest 5 mph
    (Click to enlarge)
meteogram

    Forecast for next 9 days

      Temperature Precip Pressure Wind  
Sunday
08/01/2021
00:00 06:00 72°F   30.03 inHg Light air from east 2 mph
  06:00 12:00 64°F   30.00 inHg Light breeze from east-northeast 4 mph
  12:00 18:00 90°F   30.01 inHg Gentle breeze from southwest 8 mph
  18:00 00:00 88°F   29.96 inHg Light breeze from west-southwest 6 mph
      Temperature Precip Pressure Wind  
Monday
08/02/2021
00:00 06:00 68°F   30.02 inHg Light air from east-northeast 2 mph
  06:00 12:00 63°F   30.04 inHg Light air from east 3 mph
  11:00 17:00 86°F   30.04 inHg Light breeze from west-southwest 6 mph
  17:00 23:00 90°F   29.98 inHg Light breeze from west-southwest 6 mph
  23:00 05:00 70°F   30.01 inHg Light air from east-northeast 2 mph
      Temperature Precip Pressure Wind  
Tuesday
08/03/2021
05:00 11:00 59°F   29.97 inHg Light air from east 3 mph
  11:00 17:00 90°F   29.97 inHg Light breeze from west-southwest 6 mph
  17:00 23:00 91°F   29.91 inHg Light breeze from west-southwest 6 mph
  23:00 05:00 72°F   29.91 inHg Light air from east-northeast 2 mph
      Temperature Precip Pressure Wind  
Wednesday
08/04/2021
05:00 11:00 55°F   29.88 inHg Light breeze from east 4 mph
  11:00 17:00 90°F   29.89 inHg Light breeze from west-southwest 6 mph
  17:00 23:00 90°F   29.85 inHg Gentle breeze from southwest 8 mph
  23:00 05:00 66°F   29.89 inHg Light air from southeast 3 mph
      Temperature Precip Pressure Wind  
Thursday
08/05/2021
05:00 11:00 57°F   29.90 inHg Light breeze from east 4 mph
  11:00 17:00 81°F   29.94 inHg Light breeze from southwest 6 mph
  17:00 23:00 84°F   29.90 inHg Light breeze from west-southwest 6 mph
  23:00 05:00 66°F   29.93 inHg Light air from east-northeast 2 mph
      Temperature Precip Pressure Wind  
Friday
08/06/2021
05:00 11:00 55°F   29.89 inHg Light breeze from east 4 mph
  11:00 17:00 84°F   29.89 inHg Light breeze from west-southwest 6 mph
  17:00 23:00 88°F   29.85 inHg Light breeze from west-southwest 6 mph
  23:00 05:00 70°F   29.89 inHg Light breeze from east 4 mph
      Temperature Precip Pressure Wind  
Saturday
08/07/2021
05:00 11:00 57°F   29.88 inHg Light breeze from east 5 mph
  11:00 17:00 84°F   29.89 inHg Light breeze from southwest 7 mph
  17:00 23:00 88°F   29.83 inHg Gentle breeze from southwest 8 mph
  23:00 05:00 68°F   29.88 inHg Light breeze from southeast 6 mph
      Temperature Precip Pressure Wind  
Sunday
08/08/2021
05:00 11:00 64°F   29.85 inHg Light breeze from east-southeast 6 mph
  11:00 17:00 81°F   29.90 inHg Gentle breeze from south-southwest 8 mph
  17:00 23:00 82°F   29.86 inHg Gentle breeze from southwest 9 mph
  23:00 05:00 66°F   29.90 inHg Light breeze from east 4 mph
      Temperature Precip Pressure Wind  
Monday
08/09/2021
05:00 11:00 57°F   29.89 inHg Light breeze from east 4 mph
How Close Are We To this Month's Temperature Record ?
Updated Saturday, Jul 31, 2021- 5:20:01 AM

Current Temperature: 77.2°F

July's High: Temperature Record 103.2°F - Set on Sat, Jul 10, 2021 - 4:00:17 PM
We are currently 26°F Less than this Month's record High

July's Low: Temperature Record 51.4°F - Set on Sun, Jul 10, 2016 - 7:04:00 AM
We are currently 25.8°F More than this Month's record Low

Weather History For Saturday, July 31, 2021


On this Day - In Weather History ...
Data courtesy of weatherforyou.com
powered by Cumulus v1.9.3 (1059)
Ambient Weather VWS v14.00
Top Website Map Copyright © 2007 - 2021 Foresthillweather.com Never base important decisions on this or any weather information obtained from the Internet